Location: Salisbury
(38.3600°N, 75.6000°W)
Time: 14:55:58
(UTC-05:00)

Daily predictions for brighter satellites

Satellite Brightness Start Highest point End
(mag) Time Altitude Azimuth Time Altitude Azimuth Time Altitude Azimuth
Okean 1-7 Rocket 3.9 18:20:55 10° N 18:25:16 46° E 18:29:33 10° SSE
Cosmos 1484 Rocket 4.5 18:26:15 10° SSW 18:29:57 39° W 18:33:37 10° NNW
Cosmos 2322 4.3 18:26:16 10° NNW 18:31:55 64° WSW 18:37:31 10° S
Cosmos 1300 Rocket 4.0 18:27:34 10° SSW 18:31:58 68° W 18:36:25 10° N
Cosmos 2285 Rocket 4.3 18:27:58 10° N 18:34:09 48° ENE 18:40:18 10° SE
Cosmos 1238 Rocket 2.9 18:33:15 10° NNW 18:36:11 58° W 18:39:19 10° S
Hubble Space Telescope 2.6 18:38:26 10° SW 18:41:30 20° S 18:44:35 10° SE
Cosmos 1455 Rocket 4.2 18:38:49 10° SE 18:42:05 21° E 18:45:21 10° NE
Cosmos 2237 Rocket 3.1 18:38:25 10° N 18:43:16 28° ENE 18:47:51 11° ESE
Cosmos 2297 Rocket 3.2 18:38:56 10° SSE 18:43:24 24° ESE 18:47:52 10° NE
OAO 3 Rocket 4.2 18:42:36 10° SW 18:47:03 34° SSE 18:50:29 15° ESE
Cosmos 405 Rocket 3.5 18:44:24 10° NNE 18:48:03 31° ENE 18:51:37 10° SE
Cosmos 2333 4.2 18:43:20 10° NNW 18:49:07 81° ENE 18:54:53 10° SSE
ALOS 2.4 18:45:05 10° SSE 18:49:36 51° ENE 18:54:08 10° N
COSMO-SKYMED 1 4.5 18:46:10 10° N 18:50:05 33° WNW 18:53:58 10° SW
H-2A R/B 3.5 18:48:50 10° SE 18:52:07 30° ENE 18:55:27 10° N
Cosmos 2219 Rocket 2.3 18:47:13 10° NNW 18:52:43 54° ENE 18:58:12 10° SE
COSMOS 2428 2.8 18:47:22 10° NNW 18:53:05 82° WSW 18:58:46 10° SSE
Cosmos 2360 Rocket 4.0 18:48:56 10° NW 18:54:00 35° WSW 18:59:04 10° SSW
CZ-2D R/B 4.2 18:54:44 16° ESE 18:56:51 26° ENE 19:00:03 10° NNE
SJ-6B 2.8 18:54:34 10° S 18:58:32 84° WSW 19:02:26 10° NNW
Meteor 2-4 Rocket 3.9 18:55:04 10° NNW 19:00:32 72° W 19:05:51 10° S
USA 229 DEB 3.8 18:54:41 10° NNW 19:01:53 86° ENE 19:09:09 10° SSE
USA 229 3.8 18:54:47 10° NNW 19:01:59 86° ENE 19:09:15 10° SSE
Cosmos 2227 Rocket 2.3 18:58:36 10° S 19:04:01 50° ESE 19:09:30 10° NNE
Cosmos 2219 4.3 18:59:33 10° SW 19:05:05 48° WNW 19:10:38 10° NNE
Resurs 01 Rocket 1.6 19:04:32 10° SSE 19:08:51 60° ENE 19:13:12 10° N
BREEZE-M DEB (TANK) 3.8 19:05:42 10° NW 19:09:03 57° NE 19:15:07 19° ESE
Cosmos 468 Rocket 4.0 19:04:45 10° NNW 19:09:59 63° ENE 19:15:13 10° SSE
Cosmos 1610 Rocket 4.4 19:05:56 10° S 19:12:06 72° E 19:18:13 10° N
NOSS 3-1 (A) 4.5 19:07:15 10° NNW 19:14:24 42° NE 19:19:04 23° ESE
Cosmos 1441 Rocket 4.2 19:10:55 10° NNE 19:14:09 29° ENE 19:14:09 29° ENE
Resurs 1-3 3.6 19:10:10 10° SSE 19:14:27 58° ENE 19:18:46 10° N
Spot 2 Rocket 3.4 19:10:14 10° SSE 19:15:14 68° ENE 19:20:18 10° N
Cosmos 1025 Rocket 3.6 19:11:35 10° NNW 19:15:56 61° W 19:20:15 10° S
Meteor 1-12 Rocket 4.4 19:12:51 10° SSE 19:18:36 51° E 19:24:18 10° NNE
ATLAS 2AS CENTAUR R/B 4.5 19:13:33 10° NNW 19:18:53 18° NNE 19:21:49 15° NE
SL-16 R/B 3.3 19:16:00 10° N 19:20:36 24° ENE 19:21:06 24° ENE
Cosmos 1892 Rocket 3.4 19:17:28 10° N 19:21:51 77° E 19:26:14 10° S
GEOS 3 Rocket 3.7 19:20:20 15° NE 19:24:32 55° ESE 19:29:42 10° SSW
Atlas Centaur 2 3.6 19:21:14 10° SW 19:27:53 31° SSE 19:30:22 25° SE
GPS 2-04 Rocket1 3.2 19:24:14 10° W 19:28:23 55° S 19:29:35 40° SE
Meteor 2-13 Rocket 4.4 19:23:26 10° S 19:29:29 85° W 19:35:38 10° N
NOSS 3-1 (C) 4.1 19:23:44 10° NNW 19:31:20 65° NE 19:36:32 25° SE
Envisat 3.8 19:32:28 31° ENE 19:32:28 31° ENE 19:36:25 10° N
OTV 4 0.6 19:29:06 10° W 19:31:45 66° WSW 19:31:45 66° WSW
FENGYUN 3A 4.1 19:26:56 10° S 19:32:18 64° W 19:37:42 10° NNW
Cosmos 1814 Rocket 3.8 19:28:11 10° NNW 19:33:21 77° ENE 19:36:39 22° SSE
Okean 2 4.2 19:29:32 10° NNW 19:33:38 54° W 19:37:41 10° S
SL-8 Rocket 4.4 19:38:21 38° E 19:38:54 38° E 19:44:41 10° NNE
Cosmos 1544 Rocket 4.0 19:38:07 10° SSW 19:42:23 60° W 19:46:40 10° N
Cosmos 1980 3.6 19:37:38 10° NNW 19:43:19 89° WSW 19:46:48 24° SSE
NOSS 0 Rocket 4.1 19:38:14 10° NNW 19:44:22 72° WSW 19:50:08 12° SSE
Cosmos 2333 Rocket 2.5 19:41:02 10° NNW 19:46:45 67° WSW 19:51:57 13° S
Helios 1B rocket 2.3 19:43:09 10° NNE 19:47:19 88° E 19:51:28 10° SSW
USA 32 3.9 19:44:43 10° N 19:49:56 67° E 19:51:05 51° SE
Cosmos 1354 Rocket 4.3 19:46:32 10° S 19:50:30 46° SSE 19:50:30 46° SSE
Helios 1A 2.9 19:52:55 71° S 19:53:20 82° W 19:57:30 10° NNW
Cosmos 1975 3.2 19:51:02 10° SSW 19:55:01 62° W 19:59:04 10° N
Cosmos 1437 4.2 19:53:54 10° NNW 19:56:58 37° W 19:56:58 37° W
Cosmos 1500 3.7 19:53:30 10° SSW 19:57:14 59° W 20:00:58 10° N
Nadezhda 3 Rocket 4.2 19:56:55 10° NNW 20:03:03 68° W 20:09:12 10° S
CZ-3 Stage 3 4.2 19:29:35 10° SW 20:04:47 41° S 20:07:53 35° SE
Cosmos 2082 4.4 20:02:24 10° SW 20:07:59 54° WNW 20:13:36 10° NNE
Cosmos 841 Rocket 3.4 20:05:37 10° NNW 20:10:38 83° WNW 20:10:38 83° WNW
ATLAS CENTAUR R/B 4.2 20:12:05 10° W 20:13:24 15° WNW 20:13:24 15° WNW
Cosmos 2341 Rocket 4.4 20:10:08 10° SSW 20:16:26 64° W 20:22:48 10° N
Cosmos 1763 Rocket 4.0 20:14:27 10° NNW 20:19:30 56° WSW 20:20:13 51° SW
SL-24 R/B - RUBIN 2 4.4 20:15:26 10° SSW 20:21:32 76° SSE 20:21:32 76° SSE
Hubble Space Telescope 3.4 20:19:23 10° SW 20:20:16 13° SW 20:20:16 13° SW
Cosmos 2297 Rocket 3.3 20:21:47 10° SW 20:27:08 43° WNW 20:32:31 10° N
Cosmos 2237 Rocket 3.3 20:22:08 10° NW 20:27:25 40° WSW 20:29:46 27° SSW
Cosmos 2227 Rocket 4.4 20:43:56 10° WSW 20:48:21 23° NW 20:52:48 10° N
ATLAS 3B CENTAUR R/B 4.5 20:33:56 10° WSW 20:58:47 50° S 20:59:52 49° SSE
SL-16 R/B 3.6 20:59:30 10° NW 21:03:02 34° WNW 21:03:02 34° WNW
ATLAS 2AS CENTAUR R/B 3.7 21:03:45 10° NNW 21:09:17 44° N 21:09:17 44° N
Atlas Centaur 2 4.3 21:10:20 10° WSW 21:13:02 22° SW 21:13:02 22° SW
